Tracking 35237 objects as of 6-Sep-2026
HD Live streaming from Space Station
objects crossing your sky now

SL-12 R/B(AUX MOTOR)


SL-12 R/B(AUX MOTOR) is no longer on orbit


NORAD ID: 21764
Int'l Code: 1991-074F
Launch date: October 23, 1991
Source: Commonwealth of Independent States (former USSR) (CIS)
Launch site: TYURATAM MISSILE AND SPACE COMPLEX (TTMTR)
Decay date: 1992-04-16

Note: This is a ROCKET BODY
Your satellite tracking list
Your tracking list is empty




NASA's NSSDC Master Catalog

Two Line Element Set (TLE):
1 21764U 91074  F 92083.93412293  .00264800 +12614-4 +62920-3 0  9996
2 21764 046.8718 227.2056 7166051 043.3643 354.6360 02.49397817003560
Source of the keplerian elements: AFSPC